Vorticity
7 7 9 11 5 4 15 -1 6 2 13 18 14 -2 12 5 -6 -4 -1 1 11 12 7 0 11 5 2 3 2 6 4 6 6 6 6 7 8 12 10 6 4 7 4 2 4 3 4 9 7
7 8 9 9 -2 -1 4 5 8 3 3 10 14 7 5 -0 0 7 -7 -4 13 10 10 5 0 4 5 4 4 3 5 5 7 8 7 10 8 7 6 7 6 6 3 3 -1 1 5 8 7
9 9 13 4 14 3 3 16 5 7 -6 4 1 6 15 15 9 5 7 8 5 3 10 8 8 7 9 7 6 7 5 4 6 7 7 9 9 6 4 6 5 4 4 5 2 0 4 7 6
9 6 4 1 -8 1 12 5 19 15 11 5 -6 8 11 9 2 10 2 -0 11 10 7 3 4 1 1 2 6 7 6 6 6 7 8 5 4 6 5 5 6 6 4 3 2 5 4 7 6
6 6 3 4 7 10 5 3 4 7 7 8 12 -1 -4 16 11 3 8 13 8 5 11 11 9 7 7 10 10 10 8 7 6 6 8 8 5 5 6 7 6 7 3 3 3 3 4 7 6
6 6 -1 15 11 7 7 9 3 1 14 6 10 10 -4 5 8 1 -7 -3 3 6 1 -3 3 7 4 1 3 2 6 8 8 7 8 9 7 6 7 7 5 6 4 3 3 2 4 7 6
6 2 3 2 -0 2 5 13 7 8 2 10 4 5 8 3 9 1 1 10 -0 -0 4 5 6 4 4 7 3 4 3 4 6 9 10 10 7 6 10 5 6 6 4 3 1 7 4 7 6
9 8 4 8 7 10 10 8 6 9 7 8 6 16 12 3 6 9 4 -0 11 7 2 6 6 12 7 6 5 2 7 3 0 2 8 13 11 6 7 4 4 6 5 3 5 7 4 6 6
5 5 6 7 9 4 3 4 9 7 7 9 5 3 2 10 16 10 6 6 -1 3 9 9 10 9 13 7 5 6 4 4 5 4 3 6 18 9 5 7 2 7 2 2 4 5 5 7 5
6 4 12 7 5 4 4 5 7 8 8 7 9 6 3 3 -3 6 9 6 6 7 1 8 4 -0 1 0 8 4 -2 1 1 3 3 5 10 13 6 8 1 7 2 3 4 4 5 6 6
6 6 6 4 5 6 6 4 5 5 6 10 13 4 4 7 4 3 2 7 4 3 5 -2 3 8 10 4 9 3 12 7 9 12 8 4 6 10 10 8 5 3 4 3 4 6 6 6 5
6 7 6 7 6 6 5 5 5 5 7 14 14 13 11 2 4 6 5 3 5 6 8 6 6 1 4 13 4 6 6 9 8 8 5 9 6 9 8 7 8 5 9 4 5 6 6 5 4
7 7 7 6 5 4 5 7 7 5 10 7 8 16 13 14 0 5 9 4 6 8 4 5 10 8 4 7 18 11 1 9 2 0 16 11 7 6 11 7 11 1 12 4 4 8 2 5 5
2 1 3 4 6 6 5 5 3 12 17 17 18 16 11 26 19 1 3 11 3 6 3 0 1 4 7 -1 2 11 10 12 4 9 2 10 14 1 4 8 7 4 0 9 3 7 8 4 4
6 5 2 9 12 4 3 10 19 3 4 3 6 9 16 13 17 26 -0 7 11 13 10 7 2 3 6 0 -1 -8 7 4 14 -6 7 1 0 9 10 9 6 6 6 -1 -4 5 4 6 3
2 14 13 -9 12 13 10 12 -6 15 4 5 5 8 7 13 12 16 29 -2 9 12 13 10 9 7 -0 -3 4 10 5 -9 5 4 19 -2 1 4 12 4 17 5 12 -5 12 -0 7 5 4
10 -0 5 21 6 10 0 -15 2 6 18 10 11 18 16 17 14 10 26 37 -3 6 9 9 9 7 12 3 2 -0 3 -4 -2 -7 -1 13 10 9 10 4 20 19 4 5 17 38 -10 7 4
-5 8 3 9 -6 15 4 -0 10 38 20 19 8 9 10 20 24 12 13 33 27 -1 6 8 11 13 7 7 1 2 14 20 15 18 26 12 5 12 18 5 25 1 16 10 -9 12 1 32 -1
6 5 5 4 27 -10 0 8 42 18 7 5 10 26 25 19 24 12 12 17 40 8 -8 6 6 14 0 3 6 -7 -0 19 15 -5 1 7 3 12 30 3 11 20 0 6 49 -4 29 5 10
4 5 5 21 -16 8 13 8 30 7 2 6 14 21 37 22 28 11 14 14 21 31 -3 1 2 5 8 11 15 10 8 -1 21 4 -5 13 8 8 -0 11 17 20 24 23 8 1 12 16 2
7 9 13 -1 7 23 14 50 -25 8 3 10 10 18 34 27 26 13 19 8 21 31 14 -4 2 -2 0 -0 -3 6 7 10 -5 -3 5 6 6 5 3 -9 11 18 5 3 5 6 33 29 41
0 -1 2 6 20 -4 -9 -3 26 -11 2 -1 8 11 19 21 18 16 11 16 16 16 28 5 -3 4 0 -1 -6 4 12 13 11 9 3 -2 4 6 5 8 23 14 4 8 -2 8 9 3 29
7 3 7 15 21 28 13 23 -10 5 3 13 53 -4 10 4 20 29 24 30 20 23 18 16 9 1 4 5 -0 9 12 9 9 18 13 15 6 13 -24 16 12 23 -6 28 7 -3 4 8 6
3 3 45 23 14 16 -6 16 7 -4 10 12 10 13 11 19 25 12 17 20 16 13 9 6 7 8 7 7 12 9 9 13 8 8 7 7 10 8 12 4 -1 2 5 31 17 4 7 12 10
1 24 10 17 14 -4 -5 30 -20 7 -17 18 20 12 12 13 15 18 13 13 11 15 11 8 11 10 8 12 13 8 6 11 8 2 3 6 6 -0 16 3 1 11 4 29 34 29 5 13 12
12 1 13 14 5 -14 16 4 -5 26 12 17 16 8 10 17 3 10 12 16 14 13 11 7 4 12 12 13 9 8 8 6 3 10 12 5 -1 17 16 -6 -14 26 31 32 -7 45 10 27 4
6 2 33 8 21 19 6 8 17 6 28 11 5 4 11 12 1 2 18 16 3 6 4 14 10 11 15 14 6 9 6 23 14 18 6 11 6 4 -4 -16 9 41 15 34 27 13 14 13 13
11 3 14 8 8 16 12 10 -30 19 24 9 14 16 5 -1 15 1 8 10 17 5 24 12 16 11 11 8 11 13 10 22 12 23 6 16 30 29 25 7 11 -2 18 -19 42 16 41 29 19
2 1 18 25 9 5 7 -2 16 22 14 21 16 13 18 7 8 8 8 19 14 3 14 11 11 10 18 -3 16 16 7 14 -4 12 24 22 9 13 33 2 17 36 11 40 -8 19 -7 -4 36
5 3 4 22 3 14 5 2 9 16 16 28 24 34 26 34 29 20 42 36 28 13 6 17 -4 -9 -2 10 24 17 25 20 25 14 15 -4 4 6 5 2 9 9 15 4 8 -4 46 11 56
Height
3114 3117 3119 3122 3130 3128 3126 3127 3126 3127 3130 3130 3132 3135 3137 3139 3142 3147 3144 3144 3146 3147 3149 3150 3151 3151 3152 3153 3154 3155 3155 3156 3157 3158 3158 3159 3160 3161 3162 3164 3165 3166 3167 3168 3169 3169 3169 3169 3169
3112 3114 3117 3119 3124 3125 3125 3125 3126 3126 3127 3128 3130 3132 3134 3138 3140 3141 3142 3143 3145 3147 3148 3149 3150 3151 3152 3152 3153 3154 3155 3156 3156 3157 3157 3158 3159 3160 3162 3164 3165 3166 3167 3168 3169 3169 3170 3169 3169
3111 3113 3118 3119 3120 3121 3123 3122 3123 3124 3126 3127 3129 3130 3133 3136 3138 3139 3140 3142 3144 3145 3147 3148 3149 3150 3150 3150 3151 3153 3153 3154 3155 3156 3156 3158 3158 3160 3162 3163 3165 3166 3166 3168 3169 3169 3170 3170 3169
3110 3113 3116 3115 3116 3120 3121 3120 3122 3123 3123 3123 3126 3129 3133 3130 3133 3135 3137 3139 3140 3142 3144 3145 3146 3147 3148 3149 3149 3151 3152 3153 3154 3155 3156 3157 3157 3159 3160 3162 3163 3165 3166 3166 3168 3169 3169 3170 3169
3108 3111 3113 3112 3115 3118 3120 3119 3119 3121 3122 3122 3123 3125 3129 3128 3130 3132 3132 3136 3137 3139 3141 3142 3143 3145 3146 3147 3148 3149 3150 3151 3152 3153 3154 3156 3157 3158 3159 3160 3162 3164 3165 3166 3167 3168 3169 3169 3169
3107 3110 3111 3111 3112 3115 3118 3118 3117 3117 3120 3120 3122 3124 3125 3126 3128 3128 3130 3131 3132 3134 3137 3138 3139 3141 3142 3144 3146 3148 3148 3149 3150 3151 3152 3153 3155 3157 3158 3159 3160 3161 3163 3165 3166 3167 3168 3169 3169
3106 3108 3109 3110 3111 3113 3115 3115 3114 3115 3117 3118 3119 3122 3122 3124 3124 3125 3127 3128 3129 3132 3134 3135 3136 3137 3139 3140 3141 3143 3145 3146 3148 3149 3150 3151 3153 3154 3156 3157 3159 3160 3162 3163 3165 3166 3167 3168 3168
3104 3106 3107 3108 3109 3111 3111 3110 3110 3112 3114 3116 3116 3117 3119 3120 3121 3123 3123 3124 3125 3127 3129 3132 3133 3133 3135 3137 3139 3140 3141 3143 3145 3146 3148 3149 3149 3151 3153 3155 3156 3158 3160 3161 3163 3165 3166 3167 3168
3102 3104 3104 3105 3106 3108 3108 3108 3108 3108 3108 3110 3112 3113 3116 3116 3116 3118 3120 3120 3121 3123 3125 3127 3128 3129 3131 3132 3135 3137 3138 3139 3141 3143 3144 3146 3147 3149 3150 3152 3154 3157 3159 3159 3160 3162 3164 3165 3166
3099 3101 3102 3103 3104 3104 3105 3105 3104 3104 3104 3105 3106 3107 3109 3111 3112 3113 3114 3116 3117 3117 3119 3120 3122 3124 3126 3129 3131 3132 3134 3135 3136 3138 3140 3142 3144 3146 3148 3150 3152 3154 3155 3157 3157 3159 3161 3162 3164
3097 3099 3100 3100 3100 3100 3101 3101 3100 3098 3098 3100 3099 3100 3103 3105 3106 3108 3109 3110 3112 3114 3115 3115 3118 3119 3121 3123 3126 3128 3129 3131 3133 3134 3136 3138 3140 3143 3145 3146 3149 3150 3152 3153 3155 3156 3157 3159 3161
3097 3097 3097 3099 3099 3098 3097 3096 3095 3094 3092 3097 3097 3095 3094 3098 3099 3100 3102 3103 3104 3107 3110 3112 3113 3114 3116 3119 3120 3123 3125 3127 3128 3131 3133 3134 3136 3139 3142 3143 3145 3147 3148 3149 3152 3154 3155 3156 3158
3094 3094 3095 3096 3097 3094 3092 3092 3089 3084 3093 3090 3089 3088 3087 3087 3091 3092 3094 3096 3098 3100 3102 3106 3108 3111 3113 3115 3115 3117 3119 3121 3125 3127 3128 3131 3132 3133 3137 3140 3141 3142 3144 3145 3147 3150 3151 3153 3155
3092 3092 3092 3094 3093 3089 3086 3085 3082 3084 3084 3082 3082 3082 3079 3078 3080 3082 3084 3088 3089 3092 3096 3099 3103 3106 3107 3110 3111 3110 3112 3115 3119 3122 3123 3125 3127 3129 3131 3134 3137 3139 3140 3141 3142 3144 3146 3148 3151
3089 3090 3090 3090 3089 3086 3082 3076 3079 3080 3078 3075 3074 3072 3071 3069 3068 3069 3075 3078 3081 3082 3086 3091 3095 3099 3102 3104 3107 3106 3106 3111 3114 3118 3120 3122 3123 3125 3126 3128 3130 3133 3134 3137 3137 3138 3140 3142 3145
3087 3087 3088 3088 3085 3082 3081 3068 3074 3074 3071 3067 3063 3062 3059 3058 3057 3058 3060 3068 3072 3075 3077 3082 3087 3092 3095 3099 3102 3104 3106 3108 3112 3114 3117 3118 3118 3120 3120 3122 3124 3125 3127 3129 3124 3130 3135 3137 3141
3085 3085 3085 3084 3081 3078 3077 3066 3066 3067 3061 3053 3052 3050 3047 3045 3044 3047 3046 3053 3063 3068 3070 3075 3079 3084 3089 3092 3096 3099 3103 3105 3108 3109 3111 3113 3113 3115 3115 3115 3116 3117 3120 3121 3123 3118 3124 3130 3136
3084 3083 3081 3080 3080 3073 3070 3060 3058 3057 3050 3047 3045 3041 3036 3033 3033 3036 3036 3040 3049 3058 3063 3068 3072 3077 3082 3086 3089 3093 3096 3098 3099 3102 3104 3105 3107 3108 3107 3108 3108 3110 3111 3112 3114 3117 3118 3119 3126
3082 3080 3077 3078 3077 3066 3062 3055 3054 3049 3048 3042 3035 3030 3024 3022 3022 3025 3028 3031 3037 3047 3054 3061 3067 3072 3076 3080 3083 3087 3090 3092 3094 3096 3097 3099 3101 3101 3101 3101 3101 3103 3104 3106 3107 3107 3111 3112 3120
3078 3077 3075 3074 3073 3066 3059 3048 3047 3046 3042 3036 3028 3019 3015 3014 3014 3017 3021 3023 3027 3037 3047 3055 3061 3067 3070 3074 3078 3080 3082 3084 3086 3088 3091 3092 3095 3095 3096 3096 3096 3096 3097 3100 3103 3106 3108 3108 3112
3077 3075 3073 3070 3066 3063 3055 3044 3045 3044 3040 3033 3025 3018 3014 3012 3012 3015 3016 3018 3020 3027 3040 3049 3056 3061 3065 3069 3071 3074 3076 3079 3082 3083 3085 3087 3087 3088 3088 3089 3090 3091 3091 3092 3094 3096 3098 3100 3105
3074 3072 3070 3068 3066 3062 3060 3052 3041 3038 3036 3029 3024 3020 3017 3013 3012 3012 3012 3014 3017 3023 3034 3044 3051 3056 3059 3063 3066 3068 3070 3072 3075 3077 3079 3080 3081 3082 3082 3082 3082 3083 3084 3085 3087 3089 3091 3093 3097
3074 3069 3067 3064 3062 3062 3057 3053 3037 3035 3030 3026 3023 3021 3018 3015 3011 3010 3009 3011 3015 3022 3031 3039 3045 3050 3054 3058 3060 3062 3063 3066 3068 3070 3071 3074 3076 3075 3074 3075 3075 3075 3075 3077 3078 3080 3081 3083 3088
3072 3067 3063 3061 3061 3060 3052 3052 3037 3034 3031 3026 3023 3020 3017 3014 3008 3009 3009 3012 3015 3019 3027 3034 3039 3044 3049 3051 3053 3055 3056 3060 3062 3063 3064 3065 3066 3066 3066 3066 3065 3065 3065 3066 3068 3069 3071 3073 3076
3071 3066 3064 3063 3061 3055 3050 3048 3038 3035 3032 3028 3022 3020 3018 3014 3012 3011 3012 3015 3018 3021 3025 3030 3035 3039 3042 3045 3047 3049 3051 3054 3055 3056 3057 3057 3058 3057 3058 3058 3057 3057 3057 3056 3056 3058 3060 3062 3066
3071 3070 3069 3069 3064 3055 3048 3046 3041 3036 3031 3027 3024 3021 3018 3015 3015 3014 3016 3017 3020 3022 3025 3029 3031 3034 3037 3040 3042 3044 3047 3049 3049 3049 3051 3050 3050 3050 3050 3050 3049 3048 3047 3047 3049 3048 3051 3053 3056
3071 3070 3068 3065 3061 3057 3046 3043 3039 3035 3029 3027 3024 3020 3018 3017 3017 3017 3018 3018 3020 3021 3023 3025 3027 3030 3033 3035 3038 3040 3043 3043 3042 3043 3043 3044 3043 3043 3043 3042 3042 3041 3039 3039 3041 3041 3041 3045 3047
3071 3070 3068 3066 3065 3059 3046 3044 3040 3033 3028 3026 3024 3021 3019 3018 3017 3016 3017 3017 3018 3020 3021 3024 3026 3029 3031 3033 3035 3037 3038 3039 3038 3037 3036 3035 3035 3036 3036 3035 3034 3035 3035 3034 3034 3033 3034 3036 3039
3070 3068 3067 3065 3064 3062 3055 3048 3042 3035 3030 3026 3024 3022 3021 3018 3017 3016 3016 3017 3019 3020 3021 3024 3025 3027 3029 3029 3026 3031 3031 3032 3031 3031 3031 3030 3031 3030 3028 3028 3027 3028 3029 3027 3027 3027 3027 3028 3028
3068 3067 3065 3064 3063 3060 3058 3051 3045 3038 3034 3029 3026 3024 3023 3019 3018 3017 3017 3016 3017 3019 3022 3024 3025 3026 3025 3028 3027 3026 3026 3025 3026 3026 3026 3026 3028 3027 3025 3024 3024 3022 3022 3023 3022 3022 3022 3022 3023